Wind_Speed
40 40 39 39 36 37 35 33 37 32 31 24 21 29 29 26 28 26 26 24 26 26 22 22 24 20 20 13 16 13 12 11 7 9 14 16 15 15 9 12 11 11 13
40 38 38 35 36 37 38 36 34 33 33 35 27 26 28 28 28 29 29 28 26 31 32 23 21 24 26 22 13 20 18 14 15 13 8 16 17 17 17 15 12 12 16
36 36 35 37 37 37 37 39 36 37 35 34 31 31 31 31 32 32 31 30 31 25 26 29 27 25 26 29 26 17 21 18 13 16 12 12 17 17 15 14 16 17 15
37 37 36 36 38 37 37 37 39 38 38 37 36 34 33 34 34 34 33 33 32 30 28 30 30 32 31 30 31 29 21 21 24 18 19 20 14 18 18 18 18 19 22
40 39 40 39 36 37 36 37 37 39 39 39 37 36 37 36 36 36 35 33 33 31 32 32 33 35 37 36 29 30 30 30 21 24 20 18 20 17 25 23 20 18 21
37 39 39 39 39 38 38 38 37 37 38 36 37 37 37 38 39 41 38 36 35 35 35 37 38 37 38 37 36 32 36 34 29 24 23 22 25 23 21 26 23 19 6
34 33 37 39 37 38 38 37 37 37 36 37 37 38 40 41 43 45 45 41 35 35 37 36 38 39 41 43 42 42 40 37 39 39 28 26 28 29 22 18 16 12 9
27 30 31 34 36 35 36 36 36 36 36 36 38 40 41 44 46 47 47 47 39 38 39 40 40 38 36 43 44 48 48 47 41 38 39 37 22 13 18 18 15 13 12
28 30 30 31 33 34 36 36 36 35 35 38 38 40 42 44 43 47 46 46 42 45 42 40 41 42 43 41 42 37 40 42 42 45 41 34 32 23 16 14 15 13 11
30 30 29 33 32 34 36 35 34 36 36 33 36 39 40 40 40 41 45 40 39 39 38 58 51 45 42 45 47 41 36 41 39 39 43 41 35 27 28 31 24 22 12
31 29 32 34 35 33 33 33 33 33 31 34 35 35 36 37 39 39 42 44 43 39 43 40 32 39 47 44 49 44 46 37 38 42 44 42 45 41 30 28 27 27 26
25 27 29 30 31 29 32 30 31 31 31 30 31 30 31 34 36 36 37 43 42 37 34 27 27 29 34 46 52 52 46 40 35 38 35 37 39 27 35 40 36 35 32
15 24 27 28 27 28 28 27 26 28 27 27 25 25 26 24 28 34 37 39 44 45 39 34 27 19 23 24 44 52 52 41 25 21 17 18 23 31 37 38 37 35 24
17 20 22 23 24 25 20 25 24 25 25 24 23 23 20 22 23 22 30 36 41 46 51 50 51 46 36 27 20 23 39 34 36 33 37 28 23 26 32 30 24 22 21
16 17 18 20 24 22 18 18 25 21 22 23 24 17 20 17 14 12 8 12 29 39 36 28 25 24 22 24 27 27 25 32 34 35 31 24 24 27 24 26 23 27 21
14 15 18 19 21 21 18 10 9 10 7 13 12 12 5 7 4 6 9 9 5 16 15 16 20 20 17 18 21 22 27 32 39 35 23 27 24 28 28 24 28 24 22
13 15 16 20 20 20 20 17 12 12 10 6 5 7 6 6 6 7 8 8 9 14 9 12 15 12 14 15 17 17 19 23 22 25 21 21 26 29 30 27 26 22 23
15 13 19 21 19 21 22 21 19 16 13 9 11 11 10 7 4 4 5 7 11 8 6 9 10 9 6 6 8 12 11 8 10 11 20 28 25 28 23 25 27 22 20
7 6 9 9 14 17 16 11 9 8 12 15 12 11 12 12 15 15 12 10 10 8 7 6 7 6 7 9 8 9 11 13 17 21 21 23 25 31 28 26 23 23 19
10 9 11 12 15 15 13 11 11 10 10 9 10 13 10 9 7 8 8 8 7 6 5 5 4 3 3 3 6 8 10 12 13 20 23 22 30 31 25 24 24 24 24
11 12 13 12 12 12 10 10 10 12 5 7 12 9 7 4 8 9 4 3 5 5 4 2 6 6 5 7 7 9 12 17 19 23 27 29 29 20 25 26 23 24 24
16 16 18 18 16 12 11 10 8 8 9 6 3 1 7 2 5 7 4 4 5 5 6 7 7 7 8 10 13 14 15 17 20 24 20 17 21 22 23 24 25 22 24
19 19 19 22 19 16 13 14 12 12 12 13 10 10 8 4 6 4 4 5 3 5 5 4 5 6 7 11 13 16 15 19 21 24 17 18 20 20 17 17 16 19 18
30 29 26 25 23 21 21 15 16 13 13 10 8 5 7 7 7 4 5 7 5 6 6 7 7 7 10 12 11 17 14 14 17 20 20 20 20 19 16 11 14 15 17
32 27 28 28 26 22 22 22 24 23 25 24 23 21 24 24 22 24 5 3 4 6 7 8 9 10 11 14 14 13 13 15 20 18 14 13 13 13 17 15 15 14 16
30 29 28 27 25 24 22 20 21 21 21 20 19 24 23 23 25 26 24 24 22 15 2 5 8 10 9 10 13 12 10 14 14 13 10 10 8 12 13 17 14 17 18
Wind_Direction
198 201 204 207 207 208 211 216 217 226 227 230 205 193 198 199 207 212 213 218 220 223 220 221 225 220 226 236 217 227 225 229 253 276 203 177 177 193 185 212 235 242 257
201 203 207 207 209 209 211 214 214 214 223 224 228 210 204 205 205 213 216 221 224 217 222 219 225 222 225 224 218 215 223 225 219 236 177 179 199 209 219 215 221 235 250
202 205 208 210 210 212 213 214 215 215 215 222 221 219 209 206 207 214 218 222 228 228 216 221 221 223 224 227 226 223 219 220 222 226 245 234 217 209 213 223 230 242 247
203 205 209 212 213 213 214 215 214 215 214 216 216 221 215 212 212 213 216 221 224 228 229 221 220 222 223 224 227 227 222 224 224 222 229 240 239 210 206 211 229 240 242
201 205 208 211 213 214 215 217 216 216 217 214 215 217 218 218 217 216 217 220 222 224 229 233 225 226 227 227 220 219 227 227 219 215 223 224 231 204 196 207 221 236 247
201 205 205 207 208 211 214 216 216 217 217 217 215 216 218 219 222 222 217 220 222 222 225 226 229 229 230 227 224 226 224 220 217 216 210 214 223 229 211 205 211 227 215
206 203 205 205 206 207 210 213 215 217 216 216 216 217 219 222 223 225 223 219 222 225 227 229 231 230 229 226 225 227 227 225 228 219 222 220 218 223 218 204 205 214 204
210 207 204 202 205 205 208 211 214 215 217 216 218 219 222 225 224 225 226 225 224 227 229 230 231 235 233 228 222 222 225 226 224 223 227 227 223 199 214 227 213 217 244
207 215 209 203 201 203 206 209 211 213 216 219 219 221 223 228 229 227 225 226 226 229 230 235 235 233 233 231 225 220 224 228 228 226 224 228 228 221 220 211 227 212 207
207 212 213 212 206 206 207 209 210 212 217 218 224 226 229 233 233 232 228 224 229 231 233 240 230 231 231 230 228 218 220 224 216 222 220 218 212 209 211 222 217 215 206
205 205 208 212 213 210 208 209 211 213 216 220 226 229 232 234 235 235 231 223 227 230 233 242 249 246 240 236 233 225 224 225 221 215 215 213 212 211 216 210 216 225 223
209 201 204 209 208 213 207 208 209 210 215 220 224 231 234 235 237 237 236 234 233 235 243 266 265 260 255 241 240 236 232 230 222 210 208 212 199 188 217 230 230 229 224
227 203 200 203 204 211 206 208 208 211 216 219 225 228 233 240 235 236 238 237 237 233 238 251 263 278 279 270 242 238 236 228 219 202 200 176 192 226 227 228 227 225 223
235 205 199 195 198 203 211 203 207 212 215 222 220 230 234 228 237 237 235 236 238 239 239 248 255 261 259 266 267 260 238 221 216 197 197 220 246 223 205 204 186 183 180
219 202 198 197 192 195 201 203 206 210 223 218 224 230 222 233 208 202 201 241 230 236 236 246 250 241 246 253 256 253 240 215 206 201 206 240 226 206 185 170 171 179 185
215 200 201 202 188 194 166 121 123 151 195 217 209 196 147 154 178 213 257 276 273 205 211 225 232 241 250 248 241 240 236 222 216 203 207 200 184 154 157 173 183 180 185
220 206 206 204 188 192 166 157 135 100 111 133 174 213 217 228 271 282 290 278 228 225 226 219 231 236 241 248 243 238 228 218 210 196 176 150 155 158 168 169 174 179 198
223 238 205 198 173 191 178 185 169 167 165 121 90 98 95 102 111 117 105 104 90 91 131 145 139 125 119 136 206 230 236 192 189 169 162 157 162 161 160 164 180 197 202
174 162 178 173 161 143 125 142 176 161 121 115 124 97 93 99 100 94 98 108 114 116 125 152 187 218 223 226 231 223 210 209 205 176 151 156 164 161 165 174 197 198 195
111 117 107 108 101 103 132 152 133 142 138 145 153 130 128 113 105 98 92 108 127 150 200 229 180 230 195 202 231 227 214 203 179 162 164 177 179 173 177 194 191 192 194
153 148 134 129 130 140 146 109 131 122 113 91 86 97 137 176 173 151 164 172 184 186 191 211 163 148 168 171 186 179 181 171 177 176 173 176 176 197 190 192 197 185 185
158 153 161 143 125 122 121 131 146 145 125 129 136 130 178 174 106 104 147 182 143 137 149 161 173 171 183 192 192 192 187 181 186 186 186 196 197 198 197 195 196 182 179
112 95 86 89 92 113 129 130 142 146 124 104 115 124 143 154 155 168 199 205 169 166 175 184 206 199 202 200 204 196 187 190 196 191 199 198 199 211 210 201 186 187 180
78 79 78 72 72 61 66 76 81 82 103 101 97 77 115 135 137 149 193 177 184 199 218 215 209 197 185 168 184 186 183 196 192 197 200 216 216 196 196 207 205 196 194
62 62 70 65 58 67 66 64 61 59 58 54 49 41 36 42 37 28 33 26 177 190 185 186 194 187 182 178 183 195 218 211 205 203 198 187 188 199 201 210 209 213 209
67 67 64 63 60 55 55 60 59 59 57 54 55 50 43 38 31 27 26 28 33 30 312 209 217 185 187 195 175 167 174 173 182 180 192 203 210 221 217 214 220 215 218
Height
751 755 761 766 771 777 782 786 790 794 798 800 804 805 807 811 816 820 822 823 825 827 829 832 833 836 837 839 840 842 844 846 847 847 846 845 848 851 853 854 856 857 858
742 750 755 761 766 770 774 779 783 788 792 795 799 802 804 807 811 814 815 818 819 820 823 828 830 831 831 834 835 837 839 841 842 842 844 844 843 843 844 846 848 851 853
737 743 749 754 758 762 767 772 777 780 784 788 793 796 798 800 803 806 810 813 816 819 821 822 825 826 827 828 830 832 835 836 837 838 840 841 842 844 847 848 848 847 846
727 734 740 745 749 755 760 764 768 772 775 780 783 787 791 793 795 798 801 805 808 812 814 814 816 818 820 821 824 827 830 831 831 833 834 835 839 842 843 846 847 846 844
714 721 726 734 741 748 752 756 760 764 767 770 775 779 781 784 786 790 794 798 801 804 806 807 808 809 810 812 817 821 822 825 828 829 830 831 831 829 833 836 838 838 840
702 708 717 723 729 736 742 747 752 756 760 764 767 770 772 774 777 780 784 787 790 794 794 795 795 798 802 805 808 810 812 814 818 820 821 821 822 823 824 825 830 834 836
694 700 706 712 719 725 731 738 743 747 752 755 758 760 761 763 765 769 773 777 783 785 786 787 788 786 787 792 796 798 800 804 805 808 812 813 815 815 816 817 821 823 826
687 692 697 704 710 717 723 728 734 739 742 745 747 748 750 749 752 758 764 770 773 774 774 773 776 780 783 782 782 786 788 790 794 801 801 804 809 813 813 819 816 817 824
679 683 689 695 701 707 712 717 723 729 732 734 737 739 738 738 743 748 755 760 761 758 760 766 764 766 769 774 777 777 781 781 787 789 792 794 798 802 810 814 818 815 812
672 677 683 688 692 696 701 707 713 718 721 727 728 729 731 733 736 740 747 752 751 750 752 740 739 747 755 763 764 765 768 766 773 776 781 782 785 787 788 797 804 812 809
663 669 674 678 683 688 694 700 705 710 715 717 719 722 724 725 727 730 735 738 736 739 737 734 742 744 747 752 756 758 752 761 762 765 767 769 768 772 784 786 795 802 804
659 662 666 672 676 682 687 692 698 703 707 709 712 714 714 717 719 723 727 730 734 737 736 739 738 738 738 742 745 746 751 753 754 754 756 756 751 756 769 777 783 791 795
655 657 660 666 671 677 681 688 693 698 701 703 705 706 708 710 712 715 718 721 725 728 728 732 732 732 732 732 733 735 739 745 748 751 755 757 739 743 762 771 778 784 790
651 653 657 661 666 672 677 682 686 690 693 696 697 700 701 704 707 707 708 711 714 716 720 722 722 724 725 726 727 729 731 736 738 739 741 746 748 751 756 763 770 777 786
648 650 653 657 661 667 672 674 678 683 685 688 692 694 696 697 698 700 703 705 705 705 712 715 716 717 717 718 719 720 722 726 727 728 730 736 741 747 751 753 761 773 782
645 646 649 652 656 661 667 672 675 679 681 684 686 688 690 692 695 697 699 700 701 702 705 706 708 709 712 713 714 715 716 717 715 714 716 720 732 735 743 755 764 773 779
643 644 646 649 651 657 663 669 676 681 682 683 685 686 688 690 691 693 695 696 697 699 700 703 705 706 709 709 712 712 712 712 712 708 708 713 726 732 743 753 763 770 774
642 641 642 645 647 652 657 663 669 675 680 683 686 688 689 690 690 691 692 693 697 700 703 705 708 709 709 710 711 713 714 714 717 719 716 713 729 733 744 752 758 765 768
641 640 640 641 644 649 656 662 666 670 674 681 685 689 691 690 691 692 693 695 698 701 705 707 708 708 707 710 711 712 713 714 716 715 716 723 729 735 741 749 757 761 763
641 643 643 646 648 653 659 663 668 672 676 680 683 688 690 693 696 696 696 697 698 700 702 704 705 707 706 707 710 710 711 714 717 719 721 725 729 732 740 747 751 755 758
646 647 647 649 652 657 661 666 670 675 679 681 685 688 691 694 694 696 699 700 698 697 698 702 702 703 707 707 709 711 713 712 717 723 722 724 731 736 738 742 746 750 754
647 647 649 651 657 662 666 670 674 677 680 684 688 690 693 695 695 696 698 701 697 698 697 701 704 703 704 706 709 710 712 716 720 724 728 729 731 734 737 739 742 745 749
644 647 649 654 660 664 668 672 676 679 682 686 690 691 693 695 695 696 699 700 699 698 700 702 705 704 704 705 706 707 708 712 717 722 725 728 729 733 737 739 741 743 746
652 656 659 663 667 670 673 676 680 683 686 688 690 691 690 692 692 696 701 700 699 700 699 700 701 702 704 704 707 709 710 712 713 718 723 727 730 731 735 739 741 743 745
664 668 669 673 678 681 685 687 690 691 691 691 693 697 697 695 695 697 700 699 698 699 699 699 700 701 703 704 706 709 712 714 714 718 720 721 726 730 733 736 739 742 744
677 680 682 684 688 692 696 697 697 698 699 701 703 703 703 702 703 705 705 702 700 699 699 699 700 703 705 705 706 708 712 712 717 718 719 722 725 729 733 735 737 739 742